This is the latest recevied weather packets stored in our database for station/object YREN. If no packets are shown the sender has not sent any weather packets the latest 10 day(s).
| Time | Temp. | Humidity | Pressure | Rain* | Wind** | Luminosity | Snow |
|---|---|---|---|---|---|---|---|
| 1787987103 | 20° C | 50% | 1031.6 hPa | 0 mm | - | - | - |
| 1787986204 | 20.56° C | 51% | 1031.7 hPa | 0 mm | - | - | - |
| 1787985303 | 20.56° C | 51% | 1031.7 hPa | 0 mm | - | - | - |
| 1787984403 | 20.56° C | 49% | 1031.7 hPa | 0 mm | - | - | - |
| 1787983503 | 20.56° C | 49% | 1031.7 hPa | 0 mm | - | - | - |
| 1787982603 | 20.56° C | 43% | 1031.8 hPa | 0 mm | - | - | - |
| 1787981703 | 20.56° C | 43% | 1031.8 hPa | 0 mm | - | - | - |
| 1787980804 | 20.56° C | 45% | 1032 hPa | 0 mm | - | - | - |
| 1787979904 | 20.56° C | 45% | 1032 hPa | 0 mm | - | - | - |
| 1787979004 | 20.56° C | 46% | 1032.3 hPa | 0 mm | - | - | - |
| 1787978104 | 20.56° C | 46% | 1032.3 hPa | 0 mm | - | - | - |
| 1787977204 | 20.56° C | 50% | 1032.4 hPa | 0 mm | - | - | - |
| 1787976304 | 20.56° C | 50% | 1032.4 hPa | 0 mm | - | - | - |
| 1787975404 | 20.56° C | 50% | 1032.6 hPa | 0 mm | - | - | - |
| 1787974504 | 20.56° C | 50% | 1032.6 hPa | 0 mm | - | - | - |
| 1787973604 | 20° C | 53% | 1033.1 hPa | 0 mm | - | - | - |
| 1787972704 | 20° C | 53% | 1033.1 hPa | 0 mm | - | - | - |
| 1787971804 | 20° C | 51% | 1033.6 hPa | 0 mm | - | - | - |
| 1787970904 | 20° C | 51% | 1033.6 hPa | 0 mm | - | - | - |
| 1787970003 | 18.89° C | 54% | 1033.9 hPa | 0 mm | - | - | - |
| 1787969104 | 18.89° C | 54% | 1033.9 hPa | 0 mm | - | - | - |
| 1787968203 | 18.89° C | 56% | 1034.4 hPa | 0 mm | - | - | - |
| 1787967303 | 18.89° C | 56% | 1034.4 hPa | 0 mm | - | - | - |
| 1787966404 | 18.33° C | 57% | 1034.5 hPa | 0 mm | - | - | - |
| 1787965504 | 18.33° C | 57% | 1034.5 hPa | 0 mm | - | - | - |
* Rain latest hour (hover to see other rain measurements)
** Current wind speed in m/s (hover to see current wind gust speed)